Regional Weather Roundup
Issued by NWS

Home | Current Version | Previous Version | Text Only | Print | Product List | Glossary Off
Versions: 1 2 3 4 5 6 7 8 9 10 11 12 13 14 15 16 17 18 19 20 21 22 23 24 25 26 27 28 29 30 31 32 33 34 35 36 37 38 39 40 41 42 43 44 45 46 47 48 49 50

000
ASUS45 KCYS 280010
RWRWY

WYOMING REGIONAL WEATHER ROUNDUP
NATIONAL WEATHER SERVICE CHEYENNE WY
600 PM MDT MON JUL 27 2015

NOTE:  "FAIR" INDICATES FEW OR NO CLOUDS BELOW 12,000 FEET
WITH NO SIGNIFICANT WEATHER AND/OR OBSTRUCTIONS TO VISIBILITY.

WYZ001-280100-
YELLOWSTONE NATIONAL PARK

CITY           SKY/WX    TMP DP  RH WIND       PRES   REMARKS
LK YELLOWSTONE   N/A     44  37  76 VRB6      30.12S
6HR MIN TEMP:  41; 6HR MAX TEMP:  64; 6HR PCP:  0.02;

W YELLOWSTONE  NOT AVBL

$$
WYZ002>013-054>058-071-098>099-280100-
NORTHERN WYOMING

CITY           SKY/WX    TMP DP  RH WIND       PRES   REMARKS
JACKSON        PTSUNNY   54  39  58 S13       30.10R
CODY           FAIR      63  39  42 W14G28    29.88R
GREYBULL       TSTM      58  51  78 N26G40    29.80R
6HR MIN TEMP:  58; 6HR MAX TEMP:  91; 6HR PCP: TRACE;

WORLAND        FAIR      67  54  63 N18G28    29.80R
6HR MIN TEMP:  67; 6HR MAX TEMP:  94; 6HR PCP:  0.03;

SHERIDAN       PTSUNNY   63  50  62 NW43G54   29.76R
6HR MIN TEMP:  63; 6HR MAX TEMP:  82; 6HR PCP: TRACE;

BUFFALO        FAIR      76  53  44 CALM      29.76F
6HR MIN TEMP:  68; 6HR MAX TEMP:  77; 6HR PCP:  0.01;

GILLETTE       FAIR      77  56  48 E3        29.69F
6HR MIN TEMP:  68; 6HR MAX TEMP:  91; 6HR PCP:  0.03;

HULETT         FAIR      82  48  30 S9        29.73R
NEWCASTLE      FAIR      75  59  57 NE8       29.71F

$$
WYZ014>020-022>026-101>103-280100-
CENTRAL WYOMING

CITY           SKY/WX    TMP DP  RH WIND       PRES   REMARKS
BIG PINEY      PTSUNNY   63  33  32 W17       30.14R
6HR MIN TEMP:  55; 6HR MAX TEMP:  79; 6HR PCP: TRACE;

PINEDALE       FAIR      61  32  33 NW24      30.13R
DUBOIS         FAIR      54  32  43 NW21      30.04R
LANDER         FAIR      76  26  15 NW14      29.86R
6HR MIN TEMP:  76; 6HR MAX TEMP:  89;

RIVERTON       FAIR      76  31  19 W25G39    29.87R
6HR MIN TEMP:  75; 6HR MAX TEMP:  91;

CASPER         FAIR      82  34  17 W28G38    29.82R
6HR MIN TEMP:  68; 6HR MAX TEMP:  94; 6HR PCP:  0.02;

DOUGLAS        FAIR      89  43  20 W24G35    29.77R
6HR MIN TEMP:  75; 6HR MAX TEMP:  97; 6HR PCP:  0.01;


$$
WYZ021-027>030-104>119-280100-
SOUTHERN WYOMING

CITY           SKY/WX    TMP DP  RH WIND       PRES   REMARKS
EVANSTON       FAIR      64  34  32 W24G36    30.16R
6HR MIN TEMP:  63; 6HR MAX TEMP:  73;

KEMMERER       FAIR      61  32  33 W29G43    30.14R
FORT BRIDGER   CLEAR     68  28  22 W28G40    30.16R
ROCK SPRINGS   FAIR      71  35  26 W29G38    30.06R
6HR MIN TEMP:  71; 6HR MAX TEMP:  83; 6HR PCP: TRACE;

DIXON          FAIR      85  22  10 W26G38    29.98F
RAWLINS        FAIR      75  35  23 W31G41    29.99R
6HR MIN TEMP:  71; 6HR MAX TEMP:  86; 6HR PCP: TRACE;

SARATOGA       FAIR      84  23  10 SW25G38   30.00S
LARAMIE        FAIR      83  34  17 W28G37    29.99R
6HR MIN TEMP:  78; 6HR MAX TEMP:  85; 6HR PCP: TRACE;

CHEYENNE       FAIR      89  45  21 SW17G28   29.88S
6HR MIN TEMP:  86; 6HR MAX TEMP:  92;

TORRINGTON     FAIR      83  63  50 E18       29.69R
6HR MIN TEMP:  82; 6HR MAX TEMP:  94; 6HR PCP: TRACE;

PINE BLUFFS    FAIR      90  46  22 S16G23    29.81F

$$


USA.gov is the U.S. government's official web portal to all federal, state and local government web resources and services.